This is the latest recevied weather packets stored in our database for station/object W8DRH-13. If no packets are shown the sender has not sent any weather packets the latest 10 day(s).
| Time | Temp. | Humidity | Pressure | Rain* | Wind** | Luminosity | Snow |
|---|---|---|---|---|---|---|---|
| 1777941975 | 19.44° C | 66% | 1002.2 hPa | 0 mm | - | 0 W/m² | - |
| 1777941672 | 19.44° C | 65% | 1002.2 hPa | 0 mm | - | 0 W/m² | - |
| 1777941370 | 20° C | 64% | 1002.5 hPa | 0 mm | - | 0 W/m² | - |
| 1777941067 | 20° C | 64% | 1002.3 hPa | 0 mm | - | 1 W/m² | - |
| 1777940762 | 20° C | 63% | 1002.4 hPa | 0 mm | - | 3 W/m² | - |
| 1777940461 | 20° C | 62% | 1002.4 hPa | 0 mm | - | 5 W/m² | - |
| 1777940158 | 20° C | 62% | 1002.1 hPa | 0 mm | - | 9 W/m² | - |
| 1777939855 | 20.56° C | 61% | 1002.2 hPa | 0 mm | - | 14 W/m² | - |
| 1777939552 | 20.56° C | 61% | 1002.3 hPa | 0 mm | - | 20 W/m² | - |
| 1777939250 | 20.56° C | 60% | 1002.3 hPa | 0 mm | - | 15 W/m² | - |
| 1777938946 | 20.56° C | 60% | 1002.3 hPa | 0 mm | - | 28 W/m² | - |
| 1777938643 | 20.56° C | 59% | 1002.4 hPa | 0 mm | - | 42 W/m² | - |
| 1777938340 | 20.56° C | 59% | 1002.4 hPa | 0 mm | - | 31 W/m² | - |
| 1777938037 | 20.56° C | 59% | 1002.2 hPa | 0 mm | - | 29 W/m² | - |
| 1777937732 | 20.56° C | 59% | 1002.3 hPa | 0 mm | - | 51 W/m² | - |
| 1777937429 | 20.56° C | 60% | 1002.3 hPa | 0 mm | - | 36 W/m² | - |
| 1777937126 | 21.11° C | 59% | 1002.4 hPa | 0 mm | - | 66 W/m² | - |
| 1777936824 | 21.11° C | 59% | 1002.1 hPa | 0 mm | - | 50 W/m² | - |
| 1777936521 | 21.67° C | 57% | 1002.2 hPa | 0 mm | - | 39 W/m² | - |
| 1777936217 | 22.22° C | 55% | 1002.1 hPa | 0 mm | - | 117 W/m² | - |
| 1777935913 | 22.22° C | 54% | 1002.2 hPa | 0 mm | - | 133 W/m² | - |
| 1777935613 | 22.22° C | 54% | 1002 hPa | 0 mm | - | 145 W/m² | - |
| 1777935309 | 22.78° C | 52% | 1001.9 hPa | 0 mm | - | 162 W/m² | - |
| 1777935006 | 22.22° C | 53% | 1002.1 hPa | 0 mm | - | 212 W/m² | - |
| 1777934702 | 22.78° C | 53% | 1002 hPa | 0 mm | - | 85 W/m² | - |
* Rain latest hour (hover to see other rain measurements)
** Current wind speed in m/s (hover to see current wind gust speed)